Location: Peebles
(55.6412°N, 3.1714°W)
Time: 13:43:25
(UTC+00:00)

RS-15 - Pass Details

Date: 04 December 2023
Orbit: 1893 x 2151 km, 64.8° (Epoch: 02 March)

Event Time Altitude Azimuth Distance (km) Brightness Sun altitude
Rises 19:44:29 0° 180° (S) 5,652 10.4 -32.5°
Reaches altitude 10° 19:48:16 10° 173° (S) 4,638 9.8 -33.0°
Enters shadow 19:51:57 22° 162° (SSE) 3,748 9.2 -33.5°
